User: anonymous   Login
Location: Campillo
(40.8621°N, 4.2488°W)
Time: 14:26:30
(UTC+00:00)
Language:

Iridium 4 Rocket - Orbit

View from above orbital plane
View from above orbital plane
View from above satellite
View from above satellite

Ground track
Ground track

The orbit data is extracted from the following two-line orbital elements,

1 24797U 97020F   21207.37266884  .00000202  00000-0  38040-4 0  9996
2 24797  86.9001 163.9356 0224629 355.1477 168.9734 14.44262166274417
Epoch (UTC): 26 July 2021 08:56:38
Eccentricity: 0.0224629
inclination: 86.9001°
perigee height: 584 km
apogee height: 904 km
right ascension of ascending node: 163.9356°
argument of perigee: 355.1477°
revolutions per day: 14.44262166
mean anomaly at epoch: 168.9734°
orbit number at epoch: 27441

The dashed part of the orbit path shows where the satellite is in the earth's shadow,  

DLR